Weather History for Anchorage, AK

Change the Weather History Date:

Sunday, September 8, 2013

  Actual Average Record
Temperature  
Mean Temperature 56 °F 51 °F  
Max Temperature 62 °F 58 °F 70 °F (1944)
Min Temperature 50 °F 44 °F 23 °F (1936)
Degree Days  
Heating Degree Days 9    
Month to date heating degree days 85  
Since 1 July heating degree days 426  
Cooling Degree Days 0    
Month to date cooling degree days 0  
Year to date cooling degree days 21  
Growing Degree Days 6 (Base 50)    
Moisture  
Dew Point 48 °F    
Average Humidity 81    
Maximum Humidity 89    
Minimum Humidity 72    
Precipitation  
Precipitation 0.30 in 0.10 in 0.92 in (1990)
Month to date precipitation 1.97 0.83  
Year to date precipitation 15.33 10.12  
Snow  
Snow 0.00 in 0.00 in 0.00 in ()
Month to date snowfall 0.0 0.0  
Since 1 July snowfall 0.0 0.0  
Since 1 September snowfall 0.0 0.0  
Snow Depth 0.00 in    
Sea Level Pressure  
Sea Level Pressure 29.63 in    
Wind  
Wind Speed 8 mph (SSW)    
Max Wind Speed 13 mph    
Max Gust Speed 31 mph    
Visibility 10 miles    
Events Rain    
T = Trace of Precipitation, MM = Missing Value Source: NWS Daily Summary

Daily Weather History Graph

Daily Weather History Graph

Search for Another Location

Airport:

Trip Planner

Search our weather history database for the weather conditions in past years. The results will help you decide how hot, cold, wet, or windy it might be!

Date:

Astronomy

Sep. 08, 2013 Rise Set
Actual Time 7:10 AM AKDT 8:43 PM AKDT
Civil Twilight 6:25 AM AKDT 9:27 PM AKDT
Nautical Twilight 5:27 AM AKDT 10:24 PM AKDT
Astronomical Twilight 4:17 AM AKDT 11:33 PM AKDT
Moon 11:52 AM AKDT (9/8) 9:06 PM AKDT (9/8)
Length of Visible Light 15h 02m
Length of Day
13h 32m
Waxing Crescent, 12% of the Moon is Illuminated
Sep 8
Waxing Crescent
Sep 12
First Quarter
Sep 19
Full
Sep 26
Last Quarter
Oct 4
New

Hourly Weather History & Observations

Time (AKDT) Temp. Dew Point Humidity Pressure Visibility Wind Dir Wind Speed Gust Speed Precip Events Conditions
12:53 AM 53.1 °F 50.0 °F 89% 29.47 in 10.0 mi WSW 4.6 mph - 0.02 in Rain Light Rain
1:53 AM 53.1 °F 48.9 °F 86% 29.46 in 10.0 mi SW 5.8 mph - 0.07 in Rain Heavy Rain
2:53 AM 53.1 °F 50.0 °F 89% 29.45 in 10.0 mi Calm Calm - 0.08 in Rain Light Rain
3:53 AM 53.1 °F 50.0 °F 89% 29.45 in 10.0 mi SW 5.8 mph - 0.02 in Rain Light Rain
4:53 AM 53.1 °F 50.0 °F 89% 29.47 in 10.0 mi SW 9.2 mph - 0.01 in Rain Light Rain
5:53 AM 53.1 °F 50.0 °F 89% 29.47 in 10.0 mi SW 9.2 mph - 0.00 in Rain Light Rain
6:00 AM 53.6 °F 50.0 °F 88% 29.48 in 10.0 mi SW 12.7 mph - 0.01 in Rain Light Rain
6:53 AM 52.0 °F 48.9 °F 89% 29.49 in 10.0 mi SW 10.4 mph - 0.04 in Rain Light Rain
7:53 AM 51.1 °F 48.0 °F 89% 29.52 in 6.0 mi SSW 11.5 mph 31.1 mph 0.03 in Rain Light Rain
8:11 AM 51.8 °F 48.2 °F 88% 29.53 in 5.0 mi SSW 12.7 mph 27.6 mph 0.02 in Rain Light Rain
8:49 AM 51.8 °F 48.2 °F 88% 29.55 in 10.0 mi South 9.2 mph 24.2 mph 0.03 in Rain Light Rain
8:53 AM 52.0 °F 48.0 °F 86% 29.55 in 10.0 mi South 8.1 mph - 0.03 in Rain Light Rain
9:53 AM 52.0 °F 48.0 °F 86% 29.58 in 10.0 mi South 9.2 mph - 0.00 in Rain Light Rain
10:53 AM 54.0 °F 48.0 °F 80% 29.61 in 10.0 mi South 9.2 mph - 0.00 in   Mostly Cloudy
11:53 AM 55.0 °F 48.0 °F 77% 29.65 in 10.0 mi South 8.1 mph 18.4 mph N/A   Overcast
12:53 PM 55.9 °F 46.9 °F 72% 29.67 in 10.0 mi South 10.4 mph - N/A   Overcast
1:53 PM 57.9 °F 48.0 °F 70% 29.70 in 10.0 mi South 6.9 mph - N/A   Mostly Cloudy
2:53 PM 60.1 °F 46.9 °F 62% 29.72 in 10.0 mi South 10.4 mph - N/A   Mostly Cloudy
3:53 PM 60.1 °F 46.0 °F 60% 29.74 in 10.0 mi Variable 4.6 mph - N/A   Mostly Cloudy
4:53 PM 60.1 °F 45.0 °F 57% 29.76 in 10.0 mi South 5.8 mph - N/A   Mostly Cloudy
5:53 PM 57.0 °F 48.9 °F 74% 29.76 in 10.0 mi South 13.8 mph 19.6 mph 0.01 in Rain Light Rain
6:53 PM 57.0 °F 50.0 °F 77% 29.79 in 10.0 mi West 4.6 mph 18.4 mph 0.03 in Rain Light Rain
7:53 PM 54.0 °F 48.0 °F 80% 29.81 in 10.0 mi West 11.5 mph 20.7 mph 0.12 in Rain Light Rain
8:53 PM 52.0 °F 48.0 °F 86% 29.83 in 10.0 mi Variable 6.9 mph - 0.00 in   Mostly Cloudy
9:53 PM 51.1 °F 48.0 °F 89% 29.83 in 10.0 mi ENE 4.6 mph - N/A   Mostly Cloudy
10:53 PM 51.1 °F 46.9 °F 86% 29.85 in 10.0 mi SE 4.6 mph - N/A   Mostly Cloudy
11:53 PM 54.0 °F 43.0 °F 66% 29.84 in 10.0 mi Variable 5.8 mph - N/A   Mostly Cloudy